Location: Wonder Lake State Park
(41.4960°N, 73.6562°W)
Time: 23:18:05
(UTC-04:00)

Daily predictions for brighter satellites

Satellite Brightness Start Highest point End
(mag) Time Altitude Azimuth Time Altitude Azimuth Time Altitude Azimuth
SL-19 R/B 4.4 18:56:24 10° SSE 19:01:57 64° ENE 19:07:52 10° N
Cosmos 1371 Rocket 4.5 18:59:12 10° NNW 19:04:29 71° WSW 19:09:47 10° S
Cosmos 2297 3.7 18:58:50 10° NNW 19:04:32 81° ENE 19:10:10 10° SSE
Cosmos 2233 Rocket 4.3 18:59:56 10° S 19:06:15 79° W 19:12:37 10° N
Cosmos 1805 4.4 19:03:22 10° SE 19:06:27 22° E 19:09:33 10° NE
Cosmos 1953 3.4 19:04:12 10° SE 19:07:24 24° E 19:10:36 10° NE
ALOS 3.8 19:06:01 10° ESE 19:09:05 18° ENE 19:12:09 10° NNE
ISS -1.2 19:08:18 10° SSE 19:09:34 12° SE 19:10:50 10° ESE
Meteor 1-22 Rocket 4.0 19:05:30 10° S 19:10:48 72° E 19:16:05 10° NNE
USA 215 3.8 19:06:41 10° ENE 19:12:43 39° SE 19:18:44 10° SSW
MSX 4.3 19:07:12 10° S 19:12:54 70° WSW 19:18:41 10° NNW
SKYMED 2 3.8 19:09:43 10° N 19:14:04 79° WNW 19:18:24 10° SSW
Cosmos 2369 Rocket 3.8 19:10:29 10° N 19:14:06 17° NE 19:17:42 10° E
HJ-1C 4.4 19:13:01 10° SE 19:15:52 26° ENE 19:18:44 10° NNE
Cosmos 1707 4.0 19:12:37 10° NNW 19:16:20 47° W 19:20:01 10° SSW
Cosmos 1408 Rocket 3.9 19:12:41 10° N 19:16:51 42° ENE 19:20:56 10° SSE
Meteor 1-24 Rocket 3.7 19:12:06 10° N 19:17:45 88° W 19:23:11 10° S
IDEFIX/ARIANE 42P 4.2 19:13:46 10° SSW 19:18:39 40° W 19:23:35 10° NNW
Cosmos 1603 4.3 19:15:42 10° S 19:20:53 36° ESE 19:26:05 10° NE
GPS 2-04 Rocket1 4.4 19:19:13 10° SSW 19:21:23 16° SSE 19:23:36 10° ESE
NOAA 12 4.1 19:21:10 10° SSE 19:26:23 72° ENE 19:31:40 10° N
Aureole 2 Rocket 3.6 19:25:24 10° SSW 19:29:44 59° WNW 19:33:57 10° NNE
Cosmos 1470 4.3 19:27:27 10° SE 19:29:56 16° E 19:32:25 10° NE
SL-8 R/B 4.3 19:26:06 10° SSW 19:30:30 37° SE 19:34:16 13° ENE
ATLAS CENTAUR R/B 3.6 19:27:51 10° SW 19:32:40 81° SE 19:48:21 10° NE
SeaSat 1 4.1 19:35:14 14° ESE 19:35:14 14° ESE 19:37:01 10° SE
Cosmos 724 4.4 19:29:02 10° SSW 19:34:47 57° ESE 19:40:44 10° NE
SAR-Lupe-1 4.3 19:32:27 10° S 19:35:59 72° WSW 19:39:33 10° NNW
Cosmos 2333 Rocket 4.4 19:31:17 10° WSW 19:36:06 27° NW 19:40:56 10° N
SJ-6B 3.0 19:33:30 10° S 19:37:29 78° W 19:41:34 10° NNW
In-Cosmos 22 4.2 19:33:01 10° N 19:38:50 73° E 19:44:32 10° SSE
Resurs 1-3 3.9 19:35:08 10° SE 19:39:18 45° ENE 19:43:30 10° N
Meteor 1-29 3.5 19:37:02 10° NNE 19:40:21 37° E 19:43:36 10° SSE
Helios 1A 3.1 19:36:37 10° SSE 19:40:42 52° ENE 19:44:49 10° N
FREGAT/IRIS 2.7 19:37:51 10° S 19:40:57 84° W 19:44:02 10° NNW
TELKOM 3 4.4 19:38:55 10° NW 19:41:30 29° NNE 19:42:22 22° ENE
Resurs 01 Rocket 1.6 19:38:04 10° SSE 19:42:27 63° ENE 19:46:52 10° N
CZ-4B DEB 3.9 19:41:22 21° ESE 19:42:31 25° ENE 19:45:17 10° NNE
Cosmos 1674 3.7 19:41:29 10° NNE 19:44:50 27° ENE 19:46:24 21° ESE
Cosmos 1743 Rocket 3.9 19:41:47 10° N 19:46:01 42° ENE 19:50:12 10° SSE
NOSS 3-2 (A) 4.0 19:40:43 10° SW 19:46:44 64° NW 19:53:23 10° NNE
FengYun 1-2 T 4.3 19:42:49 10° SSE 19:48:12 59° ENE 19:53:36 10° N
Cosmos 1758 3.3 19:46:14 10° S 19:50:18 80° E 19:54:26 10° N
Cosmos 1452 Rocket 3.5 19:45:50 10° NNW 19:51:06 86° WSW 19:56:22 10° SSE
ATLAS 5 CENTAUR R/B 2.1 19:51:37 10° SW 19:56:22 69° NW 20:01:34 10° NNE
Abrixas 2.6 19:54:08 10° SW 19:57:03 51° SE 19:57:41 41° ESE
Nadezhda 4 Rocket 3.9 19:53:47 10° N 20:00:03 66° E 20:06:12 10° SSE
Cosmos 1346 2.8 19:58:18 10° N 20:01:16 71° E 20:02:37 29° SSE
Meteor 2-12 Rocket 4.4 19:58:15 10° S 20:04:24 87° E 20:10:36 10° N
Meteor 1-21 Rocket 4.2 20:02:07 10° N 20:07:43 87° WSW 20:13:14 10° S
Cosmos 1092 Rocket 4.0 20:01:53 10° N 20:07:59 55° E 20:13:46 11° SSE
GP-B 3.8 20:04:18 10° NNE 20:08:19 32° E 20:08:19 32° E
Cosmos 468 4.5 20:03:14 10° SSW 20:08:30 87° WNW 20:13:46 10° NNE
ASTEX 1 3.3 20:06:40 10° NNE 20:11:33 59° E 20:16:20 10° S
Cosmos 1420 Rocket 3.9 20:06:57 10° NNW 20:12:17 82° ENE 20:16:34 16° SSE
SL-16 R/B 4.0 20:12:30 10° WSW 20:17:32 32° NW 20:22:36 10° N
Helios 1B rocket 3.0 20:13:32 10° N 20:17:36 59° WNW 20:21:38 10° SSW
CENTAUR R/B 2.6 20:12:24 10° S 20:18:09 50° ESE 20:24:35 10° NE
Cosmos 1544 3.5 20:15:52 10° SSW 20:19:33 65° W 20:23:18 10° N
Cosmos 2026 Rocket 4.4 20:15:35 10° N 20:21:16 39° ENE 20:22:37 35° ESE
Cosmos 1634 Rocket 4.0 20:17:26 10° SSE 20:23:29 54° E 20:29:30 10° NNE
CZ-2D R/B 3.1 20:24:44 46° SSE 20:25:50 82° E 20:29:45 10° N
OAO 3 Rocket 4.1 20:24:54 10° WSW 20:29:14 35° S 20:30:04 33° SSE
Cosmos 1048 Rocket 4.0 20:26:04 10° SSW 20:31:22 83° WNW 20:36:39 10° NNE
Cosmos 1269 Rocket 4.2 20:26:40 10° SSW 20:31:55 71° WNW 20:37:13 10° NNE
FENGYUN 3A 3.7 20:28:50 10° S 20:34:06 76° WSW 20:39:32 10° NNW
Envisat 3.9 20:39:20 32° NE 20:39:20 32° NE 20:42:59 10° N
H-2A R/B 3.0 20:39:09 50° SSW 20:40:00 68° WSW 20:43:53 10° NNW
Gbstr 26 Del rocket 3.2 20:38:22 10° SW 20:42:51 66° SE 20:42:57 66° SE
Cosmos 2195 Rocket 4.4 20:36:59 10° N 20:43:18 67° E 20:45:27 42° SSE
Cosmos 2151 3.4 20:39:25 10° N 20:42:40 49° NNE 20:42:40 49° NNE
Cosmos 1174 4.4 20:40:29 10° SSW 20:44:15 51° SSW 20:44:15 51° SSW
ISS -1.6 20:42:22 10° WSW 20:44:06 29° WSW 20:44:06 29° WSW
ALOS 3.0 20:42:16 14° S 20:46:07 50° W 20:50:41 10° NNW
BREEZE-M DEB (TANK) 3.3 20:40:05 10° WNW 20:51:11 64° N 20:52:03 54° NE
Cosmos 1842 Rocket 4.5 20:50:33 10° SSW 20:54:42 47° WNW 20:58:56 10° N
USA 215 3.6 20:49:37 11° NE 20:55:54 63° NW 21:02:20 10° WSW
Cosmos 158 Rocket 3.8 20:51:37 10° SSW 20:56:30 81° WNW 21:01:24 10° NNE
Cosmos 2369 Rocket 2.1 20:53:09 10° NNW 20:58:51 83° WSW 20:59:45 64° S
Cosmos 1943 Rocket 2.8 20:53:32 10° NNW 20:58:07 42° NE 20:58:07 42° NE
Cosmos 1943 3.2 20:53:52 10° SSW 20:59:30 81° WNW 21:05:09 10° NNE
Cosmos 1470 4.5 21:02:16 10° SW 21:05:47 32° WNW 21:09:17 10° NNW
Cosmos 2263 4.1 21:00:09 10° NNW 21:05:58 82° ENE 21:06:00 82° ENE
Cosmos 1627 Rocket 4.5 21:03:15 10° N 21:09:28 79° W 21:11:13 50° S
SeaSat 1 3.9 21:07:32 10° NNE 21:15:13 27° SW 21:17:25 10° SW
SL-8 R/B 4.3 21:08:11 10° WSW 21:12:17 55° WNW 21:12:17 55° WNW
ERS-1 Rocket 3.5 21:15:21 52° N 21:15:21 52° N 21:19:09 10° NNW
Cosmos 1110 Rocket 4.4 21:17:58 10° NNW 21:22:20 60° NW 21:22:20 60° NW
Cosmos 2279 Rocket 4.4 21:46:27 58° WNW 21:46:27 58° WNW 21:52:18 10° N
CENTAUR R/B 3.9 22:03:21 10° WSW 22:09:02 35° NW 22:15:23 10° NNE
